[[{"header":{"parameterUnit":"m.s-1","parameterCategory":1,"la1":30.2991,"la2":30.254,"lo1":-89.0895,"lo2":-89.0444,"dy":0.0017,"dx":0.0017,"nx":28,"ny":28,"refTime":"2024-08-27T09:00:00:Z","depth":0,"parameterNumber":2,"parameterNumberName":"U-component_of_WINDS"},"data":[0,0,0,0,0,0,0,0,0,0,0,0,0,0,0,0,0,0,0,0,0,0,0,0,0,0,0,0,0,0,0,0,0,0,0,0,0,0,0,0,0,0,0,0,0,0,0,0,0,0,0,0,0,0,0,0,0,0,-1.5843,-1.5844,0,-1.5877,-1.5877,-1.5877,-1.5841,-1.584,-1.5838,-1.5837,-1.5871,-1.5873,-1.5875,0,0,0,0,0,0,0,0,0,0,0,0,0,-1.5747,-1.5749,-1.5843,-1.5844,-1.5844,-1.5877,-1.5877,-1.5877,-1.5841,-1.584,-1.5838,-1.5837,-1.587,-1.5873,-1.5875,0,0,0,0,0,0,0,0,0,0,0,0,0,-1.5786,-1.575,-1.5843,-1.583,-1.5829,-1.5876,-1.5877,-1.5878,-1.5842,-1.584,-1.5838,-1.5836,-1.5869,-1.5872,-1.5876,-1.5937,0,0,-1.5886,-1.5887,0,0,0,0,0,0,0,0,-1.5783,-1.5789,-1.5832,-1.5831,-1.583,-1.5853,-1.5855,-1.5898,-1.5842,-1.5837,-1.5837,-1.5835,-1.5866,-1.587,-1.5881,-1.5939,-1.594,-1.5886,-1.5888,-1.5889,-1.589,0,0,0,0,0,0,0,-1.5781,-1.5788,-1.5856,-1.5832,-1.5831,-1.5822,-1.5825,-1.5863,-1.5863,-1.5837,-1.5835,-1.5839,-1.5866,-1.5878,-1.5881,-1.5941,-1.5886,-1.5889,-1.5891,-1.5892,-1.6051,-1.6053,0,0,0,0,0,0,-1.578,-1.5786,-1.5855,-1.5857,-1.5801,-1.5826,-1.5829,-1.5848,-1.5862,-1.5863,-1.5841,-1.5837,-1.5873,-1.5877,-1.5882,-1.5955,-1.5889,-1.5892,-1.5894,-1.6048,-1.6051,-1.6054,0,0,0,0,0,0,-1.5778,-1.5786,-1.5854,-1.5821,-1.5829,-1.5829,-1.585,-1.5849,-1.5861,-1.5865,-1.5865,-1.5853,-1.5872,-1.5878,-1.5924,-1.5956,-1.5894,-1.5897,-1.6046,-1.6049,-1.6052,-1.6102,0,0,0,0,0,0,-1.5775,-1.5786,-1.581,-1.5822,-1.5831,-1.5896,-1.5852,-1.5851,-1.5867,-1.5863,-1.5877,-1.5877,-1.587,-1.5919,-1.5927,-1.5959,-1.5899,-1.6043,-1.6047,-1.6051,-1.6097,-1.6106,-1.6114,0,0,0,0,0,-1.5772,-1.5822,-1.5811,-1.582,-1.586,-1.5898,-1.5903,-1.5894,-1.587,-1.5893,-1.5896,-1.5877,-1.5951,-1.5924,-1.5933,-1.5966,-1.6041,-1.6046,-1.6051,-1.6094,-1.6105,-1.6114,0,0,0,0,0,0,-1.5814,-1.5824,-1.5811,-1.5867,-1.5882,-1.5891,-1.5921,-1.5906,-1.5928,-1.5923,-1.5911,-1.5915,-1.5964,-1.597,-1.594,-1.6026,-1.5992,-1.5999,-1.6021,-1.6032,-1.604,-1.6038,-1.5902,0,0,0,0,0,-1.583,-1.586,-1.5866,-1.5915,-1.5923,-1.5921,-1.5937,-1.5929,-1.5943,-1.5949,-1.5955,-1.597,-1.5996,-1.6014,-1.6039,-1.6098,-1.61,-1.6125,-1.6133,-1.614,-1.6147,-1.6178,-1.6189,-1.607,-1.607,-1.607,0,0,-1.5863,-1.5872,-1.5892,-1.5924,-1.5934,-1.5965,-1.5926,-1.596,-1.5983,-1.5954,-1.5999,-1.6003,-1.6019,-1.6071,-1.6095,-1.6078,-1.618,-1.6147,-1.6152,-1.6155,-1.6184,-1.6195,-1.6205,-1.6074,-1.6073,-1.6072,0,0,-1.5939,-1.5949,-1.599,-1.6001,-1.6018,-1.6016,-1.6026,-1.6037,-1.6039,-1.6083,-1.6062,-1.6089,-1.6135,-1.6147,-1.6159,-1.6238,-1.6221,-1.6246,-1.6291,-1.6321,-1.633,-1.6338,-1.6367,-1.6377,-1.6252,-1.6253,-1.6253,0,-1.5979,-1.6024,-1.6014,-1.6049,-1.6064,-1.6039,-1.608,-1.6091,-1.6115,-1.6125,-1.6106,-1.6162,-1.6171,-1.6226,-1.6245,-1.6256,-1.6267,-1.6245,-1.633,-1.6338,-1.6345,-1.6372,-1.6383,-1.6255,-1.6255,-1.6255,-1.6255,0,-1.6071,-1.6103,-1.6135,-1.6158,-1.6175,-1.6214,-1.6209,-1.6228,-1.6218,-1.6218,-1.6263,-1.6272,-1.6298,-1.631,-1.6301,-1.6364,-1.6353,-1.6332,-1.6297,-1.636,-1.6385,-1.6395,-1.626,-1.6259,-1.6258,-1.6257,0,0,-1.6176,-1.6192,-1.6204,-1.6214,-1.6229,-1.6254,-1.629,-1.6316,-1.6332,-1.6349,-1.6379,-1.6418,-1.6399,-1.6412,-1.6404,-1.6431,-1.6492,-1.6406,-1.6406,-1.6422,-1.6562,-1.6578,-1.659,-1.6481,-1.6483,-1.6484,-1.656,0,-1.6253,-1.6317,-1.6308,-1.637,-1.6398,-1.6375,-1.6407,-1.6419,-1.642,-1.6444,-1.6445,-1.6473,-1.6445,-1.6453,-1.6478,-1.648,-1.652,-1.6474,-1.6509,-1.651,-1.6506,-1.6603,-1.662,-1.6692,-1.657,-1.6572,-1.6573,0,-1.6351,-1.6371,-1.6436,-1.6446,-1.6457,-1.6486,-1.6508,-1.6532,-1.6545,-1.6544,-1.6559,-1.6545,-1.6582,-1.6545,-1.6595,-1.6564,-1.6577,-1.658,-1.6582,-1.6586,-1.6546,-1.6609,-1.6714,-1.6725,-1.6588,-1.6587,-1.6586,0,-1.6421,-1.6464,-1.6508,-1.6517,-1.653,-1.6551,-1.6557,-1.6569,-1.6584,-1.6603,-1.6613,-1.6636,-1.6649,-1.6667,-1.666,-1.6634,-1.671,-1.6674,-1.671,-1.671,-1.6728,-1.6727,-1.6837,-1.6736,-1.6736,-1.6736,-1.6735,0,-1.6508,-1.6549,-1.654,-1.6567,-1.6611,-1.66,-1.6644,-1.6647,-1.6657,-1.6684,-1.6665,-1.669,-1.6679,-1.6704,-1.6699,-1.674,-1.6746,-1.6746,-1.6744,-1.6748,-1.6748,-1.6757,-1.6752,-1.6738,-1.6738,-1.6737,-1.6737,0,-1.6595,-1.6591,-1.6637,-1.6645,-1.6648,-1.668,-1.6687,-1.6712,-1.671,-1.6745,-1.6752,-1.675,-1.6778,-1.6773,-1.6803,-1.68,-1.6852,-1.6844,-1.6848,-1.6846,-1.6883,-1.6879,-1.7003,-1.7018,-1.6907,-1.6908,-1.6909,0,-1.6651,-1.6681,-1.6692,-1.6709,-1.6717,-1.6744,-1.6759,-1.6749,-1.6766,-1.6783,-1.6806,-1.6832,-1.6852,-1.6898,-1.6899,-1.6923,-1.6915,-1.6956,-1.6918,-1.6921,-1.6916,-1.6914,-1.6917,-1.6964,-1.6966,-1.6967,-1.6967,0,-1.6751,-1.6747,-1.677,-1.6792,-1.6811,-1.6828,-1.6844,-1.6858,-1.6849,-1.6869,-1.6897,-1.6913,-1.6944,-1.697,-1.6992,-1.6998,-1.6981,-1.6979,-1.6989,-1.6994,-1.6995,-1.6995,-1.6869,-1.6977,-1.6976,-1.6975,-1.6975,-1.6974,-1.6824,-1.685,-1.6861,-1.6887,-1.6897,-1.6912,-1.6936,-1.6937,-1.696,-1.6985,-1.6977,-1.7009,-1.7021,-1.7048,-1.7056,-1.7081,-1.7065,-1.7079,-1.7083,-1.7087,-1.7091,-1.699,-1.7085,-1.7084,-1.7084,-1.7084,-1.7084,0,-1.6923,-1.6929,-1.6953,-1.6975,-1.6995,-1.6977,-1.6993,-1.7011,-1.704,-1.7052,-1.7072,-1.7104,-1.7129,-1.7132,-1.7155,-1.7174,-1.7167,-1.7181,-1.718,-1.7181,-1.7104,-1.7093,-1.7186,-1.7186,-1.7186,-1.7186,-1.7186,-1.7186,-1.6977,-1.7019,-1.7017,-1.7063,-1.7069,-1.71,-1.7111,-1.7124,-1.7133,-1.717,-1.7191,-1.7192,-1.72,-1.7224,-1.7246,-1.7246,-1.7255,-1.7272,-1.7269,-1.7197,-1.7187,-1.7177,-1.7167,-1.7274,-1.7274,-1.7344,-1.7345,-1.7346]},{"header":{"parameterUnit":"m.s-1","parameterCategory":1,"la1":30.2991,"la2":30.254,"lo1":-89.0895,"lo2":-89.0444,"dy":0.0017,"dx":0.0017,"nx":28,"ny":28,"refTime":"2024-08-27T09:00:00:Z","depth":0,"parameterNumber":3,"parameterNumberName":"V-component_of_WINDS"},"data":[0,0,0,0,0,0,0,0,0,0,0,0,0,0,0,0,0,0,0,0,0,0,0,0,0,0,0,0,0,0,0,0,0,0,0,0,0,0,0,0,0,0,0,0,0,0,0,0,0,0,0,0,0,0,0,0,0,0,0.4654,0.4654,0,0.4625,0.4625,0.4625,0.4594,0.4593,0.4593,0.4592,0.4563,0.4562,0.4562,0,0,0,0,0,0,0,0,0,0,0,0,0,0.4681,0.4681,0.4654,0.4654,0.4654,0.4625,0.4625,0.4625,0.4594,0.4593,0.4593,0.4592,0.4563,0.4562,0.4562,0,0,0,0,0,0,0,0,0,0,0,0,0,0.4663,0.4681,0.4654,0.4635,0.4633,0.4626,0.4625,0.4625,0.4594,0.4593,0.4592,0.4592,0.4563,0.4562,0.4562,0.4572,0,0,0.456,0.456,0,0,0,0,0,0,0,0,0.4664,0.4662,0.4638,0.4636,0.4634,0.4612,0.4624,0.4607,0.4594,0.4609,0.4592,0.4592,0.458,0.4578,0.4574,0.457,0.4569,0.456,0.456,0.4559,0.4559,0,0,0,0,0,0,0,0.4665,0.4663,0.4643,0.4638,0.4635,0.4627,0.4624,0.462,0.4598,0.4607,0.4605,0.4602,0.4578,0.4574,0.4573,0.4569,0.456,0.456,0.4559,0.4559,0.457,0.4571,0,0,0,0,0,0,0.467,0.4664,0.4644,0.4642,0.4648,0.4627,0.4623,0.462,0.4598,0.4594,0.4603,0.4601,0.4576,0.4574,0.4572,0.4581,0.4559,0.4559,0.4559,0.457,0.4571,0.4571,0,0,0,0,0,0,0.467,0.4668,0.4645,0.4652,0.4649,0.4627,0.4624,0.462,0.4616,0.4595,0.459,0.4603,0.4575,0.4573,0.4572,0.458,0.4559,0.4558,0.4569,0.457,0.4571,0.46,0,0,0,0,0,0,0.4671,0.4669,0.4672,0.4653,0.4649,0.4646,0.4624,0.462,0.4615,0.4612,0.4594,0.459,0.4574,0.4573,0.4571,0.4578,0.4558,0.4568,0.4569,0.4571,0.4599,0.4602,0.4605,0,0,0,0,0,0.4672,0.4682,0.4673,0.467,0.4653,0.4646,0.4644,0.4626,0.4616,0.4619,0.4605,0.459,0.4579,0.4573,0.4571,0.4578,0.4568,0.4569,0.457,0.4597,0.4601,0.4605,0,0,0,0,0,0,0.4703,0.4679,0.4669,0.4672,0.4662,0.4641,0.4645,0.4631,0.4623,0.4621,0.4599,0.4595,0.4597,0.4587,0.4581,0.4586,0.4571,0.4572,0.4592,0.4596,0.4599,0.4601,0.4557,0,0,0,0,0,0.4711,0.4707,0.4686,0.4692,0.4687,0.4667,0.4663,0.465,0.4638,0.4634,0.462,0.4609,0.4602,0.4599,0.4592,0.4597,0.4592,0.4601,0.4604,0.4607,0.4608,0.4609,0.4613,0.4576,0.4576,0.4576,0,0,0.4726,0.4712,0.4711,0.4697,0.4688,0.4684,0.4663,0.4661,0.4658,0.4633,0.4631,0.4621,0.4607,0.4609,0.4609,0.4601,0.4617,0.4609,0.4611,0.4611,0.4611,0.4615,0.4618,0.4577,0.4577,0.4577,0,0,0.4751,0.4741,0.4743,0.4734,0.4719,0.4706,0.4706,0.4688,0.468,0.4678,0.4658,0.4655,0.4645,0.4635,0.4629,0.465,0.4635,0.4648,0.4666,0.4667,0.467,0.4672,0.4679,0.4682,0.4649,0.4649,0.4649,0,0.4771,0.4766,0.4747,0.4745,0.4739,0.4716,0.4719,0.471,0.4694,0.469,0.4682,0.4668,0.4657,0.4656,0.4661,0.4657,0.4656,0.465,0.4671,0.4673,0.4675,0.4681,0.4684,0.4651,0.4651,0.4651,0.465,0,0.4791,0.4788,0.4792,0.4777,0.4771,0.4772,0.4752,0.4749,0.4736,0.4723,0.4721,0.4707,0.4696,0.4695,0.4683,0.4692,0.4687,0.4675,0.466,0.4681,0.4686,0.4688,0.4653,0.4653,0.4652,0.4652,0,0,0.4836,0.4809,0.4811,0.4804,0.4785,0.4782,0.4781,0.4771,0.4768,0.4757,0.4755,0.4747,0.4735,0.4728,0.4715,0.4716,0.4732,0.4703,0.4703,0.4709,0.474,0.4749,0.4753,0.4723,0.4723,0.4723,0.4741,0,0.4858,0.4855,0.4837,0.4839,0.4835,0.4813,0.4812,0.4801,0.4788,0.4783,0.4769,0.4764,0.4749,0.4744,0.4745,0.473,0.4738,0.4729,0.472,0.472,0.4724,0.4755,0.4765,0.4783,0.4743,0.4744,0.4744,0,0.4883,0.4874,0.4876,0.4856,0.4854,0.4854,0.4842,0.4837,0.4823,0.4814,0.4806,0.4791,0.4788,0.4773,0.4769,0.4763,0.4758,0.475,0.475,0.4749,0.4733,0.4754,0.4788,0.4791,0.4747,0.4747,0.4747,0,0.4915,0.4903,0.4902,0.4896,0.4874,0.4874,0.4865,0.485,0.4845,0.4834,0.483,0.482,0.4814,0.4806,0.4788,0.478,0.4785,0.477,0.4777,0.4778,0.4779,0.4779,0.4813,0.4777,0.4777,0.4777,0.4777,0,0.4941,0.4943,0.4916,0.4915,0.4916,0.4895,0.4897,0.4885,0.4872,0.4869,0.4849,0.4846,0.4822,0.4816,0.4802,0.48,0.4797,0.479,0.4786,0.4791,0.4792,0.4788,0.4786,0.4778,0.4777,0.4777,0.4777,0,0.4977,0.4959,0.4956,0.4935,0.493,0.4931,0.4913,0.4911,0.4898,0.4894,0.4891,0.487,0.4862,0.4843,0.483,0.482,0.4821,0.4814,0.4826,0.4823,0.4832,0.4831,0.4863,0.4866,0.4829,0.483,0.483,0,0.4994,0.4995,0.4974,0.497,0.4962,0.4956,0.495,0.4929,0.4924,0.4907,0.4908,0.4898,0.4889,0.4877,0.486,0.4849,0.4842,0.4854,0.484,0.4845,0.4841,0.4841,0.4841,0.4857,0.4857,0.4858,0.4858,0,0.5028,0.5018,0.5011,0.5,0.4994,0.4984,0.4973,0.4971,0.4948,0.4943,0.4934,0.4927,0.4913,0.4904,0.489,0.488,0.4865,0.4863,0.4864,0.4869,0.4875,0.4871,0.4834,0.4862,0.4862,0.4861,0.4861,0.4861,0.5054,0.5054,0.5038,0.503,0.502,0.501,0.5008,0.4993,0.4986,0.4973,0.4961,0.4954,0.4938,0.4919,0.491,0.4903,0.4895,0.4897,0.4898,0.4898,0.49,0.4877,0.4901,0.4901,0.49,0.49,0.49,0,0.5086,0.5075,0.5068,0.5053,0.5047,0.5033,0.502,0.5016,0.5009,0.4997,0.4988,0.4978,0.4968,0.495,0.4938,0.4936,0.4929,0.4934,0.4934,0.4931,0.4908,0.4908,0.494,0.494,0.494,0.494,0.494,0.494,0.5102,0.51,0.5088,0.5081,0.5069,0.5062,0.5056,0.5046,0.5036,0.5025,0.5017,0.5005,0.499,0.4977,0.4967,0.4962,0.4958,0.4966,0.4958,0.4937,0.4933,0.493,0.4929,0.4965,0.4965,0.4982,0.4982,0.4982]}]]